Location: Buch
(49.7331°N, 12.1098°E)
Time: 01:11:43
(UTC+00:00)

Meteor 2-9 Rocket - Pass Details

Date: 12 May 2021
Orbit: 791 x 895 km, 81.3° (Epoch: 23 June)

Event Time Altitude Azimuth Distance (km) Brightness Sun altitude
Rises 22:04:10 0° 346° (NNW) 3,504 9.0 -20.4°
Reaches altitude 10° 22:06:39 10° 345° (NNW) 2,550 7.9 -20.6°
Maximum altitude 22:12:26 75° 262° (W) 900 4.3 -20.8°
Enters shadow 22:14:32 40° 186° (S) 1,245 4.6 -20.9°
